User: anonymous   Login
Location: B?jaj?g
(11.7167°N, 92.6667°E)
Time: 04:31:34
(UTC+00:00)
Language:

Meteor 1-14 Rocket - Orbit

View from above orbital plane
View from above orbital plane
View from above satellite
View from above satellite

Ground track
Ground track

The orbit data is extracted from the following two-line orbital elements,

1 06393U 73015B   20337.29409618  .00000182  00000-0  10420-3 0  9992
2 06393  81.2543 169.8846 0058191 323.5345  36.1866 14.05026845444239
Epoch (UTC): 02 December 2020 07:03:29
Eccentricity: 0.0058191
inclination: 81.2543°
perigee height: 834 km
apogee height: 918 km
right ascension of ascending node: 169.8846°
argument of perigee: 323.5345°
revolutions per day: 14.05026845
mean anomaly at epoch: 36.1866°
orbit number at epoch: 44423

The dashed part of the orbit path shows where the satellite is in the earth's shadow,  

DLR